Theta_e
297 297 297 297 297 298 298 298 298 298 297 297 297 297 296 295 295 295 295 295 296 296 296 296 296 296 297 297 297 298 298 299 299 299 299 299 299 299 299 298 297 297 296 295 295 294 294 294 293 292 292 292 292 292 293 294 294 295 295 296 295 295 294 294 293 294 294 294 294 294 294 295 295 295
294 295 296 296 297 297 297 297 297 297 297 297 296 296 296 296 295 295 295 295 295 296 296 296 296 296 296 296 297 297 297 298 298 298 299 299 299 299 299 298 298 297 297 296 295 294 294 294 293 292 292 292 292 292 293 293 294 295 296 295 295 294 294 294 293 293 293 294 294 294 294 294 294 295
290 291 293 294 295 296 296 296 296 296 296 296 296 296 296 296 295 295 294 294 295 295 295 295 296 296 296 296 296 296 297 297 297 297 298 298 298 298 298 298 298 297 297 296 295 294 294 293 293 293 292 292 292 293 293 294 295 295 295 295 295 294 294 293 293 293 293 294 293 293 294 294 294 294
288 288 289 290 291 293 294 295 296 296 296 296 296 296 296 296 295 295 294 294 295 295 295 295 295 295 295 296 296 296 296 296 296 297 297 297 298 298 298 298 298 297 297 296 295 294 294 293 293 293 292 292 292 293 293 294 295 295 295 295 295 294 294 293 293 293 293 293 293 293 293 293 293 294
287 287 287 288 288 288 290 291 293 295 296 295 295 295 295 295 295 295 295 294 295 295 295 295 295 295 295 295 296 296 296 296 296 296 296 297 297 298 298 298 298 297 297 296 295 294 293 293 293 293 292 292 293 293 293 294 295 295 296 296 295 294 294 293 293 293 293 293 293 293 293 293 293 293
287 287 287 287 287 287 287 288 289 291 293 294 295 295 295 295 295 295 295 294 294 295 295 295 295 295 295 295 295 296 296 296 296 296 296 296 297 297 297 297 297 297 297 297 296 295 293 293 293 292 292 292 292 293 293 294 295 295 296 296 295 295 294 293 293 293 292 292 292 292 292 292 292 293
286 287 287 286 287 287 287 287 287 287 288 290 292 294 295 295 295 295 294 294 294 294 294 295 295 294 294 295 295 295 296 296 296 296 296 296 296 297 297 297 297 297 297 296 296 295 294 292 292 292 292 292 292 293 293 294 294 295 295 296 296 295 294 294 293 292 292 292 292 292 292 292 292 292
286 286 286 287 286 286 286 286 287 287 287 287 288 289 291 293 294 295 294 294 294 294 294 294 294 294 294 294 295 295 295 296 296 296 296 296 296 296 297 297 297 297 297 296 296 295 294 293 292 292 292 292 292 292 293 293 294 295 295 296 296 296 295 294 293 292 292 292 291 291 291 291 291 292
286 286 286 286 286 286 286 286 286 286 286 286 287 287 287 289 291 293 294 294 294 294 294 294 294 294 294 294 294 294 295 295 295 296 296 296 296 296 296 297 297 297 297 296 296 295 295 293 292 291 291 291 292 292 293 293 294 294 295 295 296 296 295 295 293 292 292 291 291 291 291 291 291 291
286 286 286 286 286 286 286 286 286 286 286 286 286 286 287 287 287 289 292 294 293 293 293 294 294 293 293 293 294 294 294 294 295 295 296 296 296 296 296 297 297 296 296 296 296 296 295 294 292 291 291 291 291 292 292 293 293 294 294 295 295 296 296 295 294 293 292 291 291 291 291 291 291 291
285 285 285 286 286 286 286 286 286 286 286 286 286 286 286 286 286 286 288 291 293 293 293 293 293 293 293 293 293 293 293 293 294 294 295 295 296 296 296 296 296 296 296 296 296 295 295 294 293 291 290 290 291 291 292 292 293 293 293 294 295 295 296 296 295 293 292 291 291 291 291 291 291 291
284 285 285 285 285 285 285 285 285 285 285 285 285 286 285 285 286 286 286 287 289 292 293 293 293 293 293 293 292 292 292 293 293 293 294 294 295 295 296 296 296 296 296 296 296 295 295 294 293 291 290 290 290 291 291 292 292 292 293 294 294 295 295 295 295 294 292 291 291 291 291 291 291 291
284 285 285 285 285 285 285 285 285 285 285 284 285 285 285 285 285 285 286 286 286 288 291 293 293 292 292 293 292 292 292 292 293 293 293 293 294 294 295 295 295 296 296 295 295 296 295 294 293 292 292 291 290 290 291 291 292 292 292 293 294 294 295 295 295 294 293 291 291 290 290 290 290 290
283 283 284 284 284 285 284 284 285 284 284 284 284 284 285 285 285 285 285 286 285 286 288 290 292 292 291 292 292 292 292 292 292 292 292 293 293 293 293 294 294 295 295 295 295 295 295 294 294 294 293 292 290 290 290 291 292 292 292 292 293 294 294 294 295 294 293 292 291 290 290 290 290 290
281 282 282 282 283 284 284 284 284 284 284 284 284 284 284 284 284 285 285 285 285 285 285 287 289 291 292 293 292 292 292 292 291 291 292 292 292 292 292 293 294 294 294 294 295 295 295 295 294 294 294 294 292 290 290 291 291 292 292 292 292 293 294 294 294 294 293 292 291 290 290 290 290 289
280 280 281 281 281 282 282 283 283 284 284 284 284 284 284 284 284 284 284 285 285 285 285 285 286 288 290 292 292 291 291 291 291 291 291 291 291 292 292 292 293 293 293 293 294 294 295 295 295 295 295 295 293 292 291 290 291 292 292 292 292 292 293 293 294 294 293 292 291 290 290 289 289 289
278 279 279 279 280 280 280 281 281 282 283 283 284 284 284 284 284 284 284 284 285 285 285 285 285 286 287 290 291 292 291 291 291 291 290 291 291 291 291 292 292 292 292 293 293 294 294 294 295 295 295 295 294 293 292 290 290 291 291 291 292 292 292 293 293 293 293 293 291 290 289 289 289 289
278 278 277 277 278 279 279 279 279 280 281 281 282 283 283 283 284 284 284 284 284 284 285 285 285 285 286 287 288 291 291 291 290 291 291 290 291 290 291 291 291 291 292 292 293 293 294 294 294 295 295 295 294 294 293 292 291 290 291 291 291 291 292 292 293 293 293 293 292 290 289 289 289 288
276 277 277 277 277 277 278 278 278 278 279 280 281 281 282 282 283 283 284 284 284 284 284 285 285 285 285 285 286 288 291 291 290 291 291 291 290 290 290 291 290 290 291 291 291 292 293 293 293 294 295 294 295 295 294 293 291 290 290 291 291 291 291 292 292 292 292 293 292 291 290 289 289 288
274 275 275 275 275 275 276 276 276 277 278 278 279 280 281 281 282 283 283 284 284 284 284 284 285 285 285 285 285 286 289 290 290 290 290 290 289 289 290 290 290 290 290 290 290 291 292 292 293 293 294 294 294 294 294 294 292 290 290 290 290 291 291 291 291 292 292 292 292 291 290 289 289 288
272 272 272 273 273 273 274 274 274 275 276 276 277 278 279 280 281 282 283 283 283 283 283 283 284 284 285 285 285 285 286 289 290 290 289 289 289 289 289 289 289 289 289 289 290 290 291 291 292 293 293 293 293 294 294 294 293 291 289 289 290 290 290 290 290 291 291 292 292 291 290 289 288 288
270 270 270 271 271 272 272 273 274 274 275 275 276 277 277 278 279 280 281 282 283 283 284 283 283 284 284 285 285 284 285 287 289 290 289 289 289 289 288 289 289 288 289 289 289 289 289 290 291 291 291 291 292 293 293 293 292 291 289 288 289 289 289 289 289 290 290 291 291 291 290 289 288 287
269 269 269 269 270 271 272 272 273 274 275 275 275 276 276 277 278 279 280 281 282 283 283 284 283 283 284 284 285 284 284 285 287 289 290 289 289 289 288 289 288 288 288 289 289 288 289 289 289 290 290 290 290 291 292 292 292 291 289 287 288 288 289 288 288 289 289 290 290 290 289 288 288 287
268 269 269 270 270 271 272 272 273 273 274 275 275 275 275 275 276 277 278 280 282 283 283 284 284 283 283 284 284 284 284 284 286 288 289 290 289 289 289 288 288 288 289 289 288 288 288 288 288 289 289 289 290 291 291 291 291 291 289 287 287 288 288 287 288 288 288 288 288 288 288 288 288 288
269 269 270 270 270 271 271 272 272 273 274 274 275 275 275 275 276 276 277 278 280 282 283 284 284 284 283 283 284 284 284 284 284 286 287 289 289 289 289 288 288 288 289 289 288 288 288 288 288 288 288 288 288 289 290 290 291 290 289 287 287 287 287 287 288 288 287 287 286 287 287 287 287 287
269 270 270 270 270 271 271 271 272 272 273 273 274 275 275 276 277 277 277 277 278 280 282 283 284 284 284 284 284 284 284 284 284 284 285 287 288 289 289 289 288 288 289 288 288 288 288 288 288 288 287 287 287 288 288 289 290 290 288 286 285 286 286 287 287 288 287 286 286 286 286 286 286 287
270 270 271 271 271 271 272 272 272 273 273 274 274 274 275 275 276 277 278 278 278 279 281 283 284 284 284 284 284 284 284 284 284 284 284 285 287 288 289 289 289 289 288 288 288 288 287 288 288 288 288 287 287 287 287 288 289 289 288 286 285 285 285 285 287 287 287 286 286 286 286 285 285 286
272 272 272 272 273 273 273 273 273 273 274 274 274 274 275 275 276 277 278 278 279 279 279 281 284 284 284 284 284 284 284 284 284 284 284 284 285 287 288 289 289 289 288 287 287 287 287 287 287 287 287 287 287 287 287 287 287 288 289 287 285 284 284 284 285 286 286 286 285 285 285 285 285 285
272 273 273 273 274 274 274 274 274 273 273 273 273 274 274 275 275 276 277 277 278 279 279 280 282 284 285 284 284 284 284 284 284 284 284 284 285 286 287 288 288 288 288 287 287 287 287 287 287 287 287 287 286 286 287 287 287 287 288 287 286 286 285 284 284 285 285 285 285 285 285 285 285 286
273 273 273 274 274 274 274 274 273 273 273 273 273 274 274 274 275 275 276 276 277 279 279 280 281 284 285 285 284 284 284 284 284 284 284 284 284 285 286 287 288 288 288 288 287 287 287 286 286 287 287 287 287 286 286 286 287 287 287 287 287 287 286 285 284 284 284 284 284 284 284 284 284 285
273 274 274 274 274 274 274 274 274 274 274 274 274 274 274 274 274 275 275 276 277 278 280 280 281 283 285 285 285 285 285 285 284 284 284 285 284 284 285 286 287 287 288 288 288 287 287 286 286 286 286 286 287 287 286 286 287 287 287 287 287 287 287 286 285 283 283 283 283 283 283 283 283 283
274 274 274 274 274 274 274 274 274 274 274 274 274 274 273 274 274 275 275 276 277 279 280 280 281 283 285 285 285 285 285 285 285 285 285 284 284 284 284 286 287 287 287 287 287 287 287 286 286 286 286 286 286 286 286 286 286 287 287 287 287 287 287 287 285 284 283 282 282 282 282 282 282 282
275 275 275 275 274 274 274 274 274 274 274 274 274 274 274 274 274 275 276 276 277 279 281 281 281 283 284 285 285 285 285 285 285 285 285 285 284 284 284 285 286 286 287 287 287 287 287 286 286 285 285 286 286 286 286 286 286 287 287 287 287 287 286 286 285 284 283 282 281 281 281 281 281 281
275 275 275 275 275 274 274 274 274 274 274 274 274 274 274 274 274 275 276 277 278 280 281 281 282 283 284 285 285 285 285 285 285 285 285 284 284 284 284 285 285 286 286 286 286 286 286 286 286 285 285 285 285 285 286 286 286 287 287 287 287 287 286 285 284 283 283 282 281 281 280 280 280 281
275 275 275 274 274 274 274 274 274 274 274 274 275 275 275 275 275 275 276 277 278 280 282 282 282 282 283 284 284 284 285 285 285 285 284 284 284 284 284 284 285 286 286 286 286 285 285 285 285 285 284 284 284 284 284 285 286 286 286 286 286 285 285 285 284 283 282 281 281 280 280 280 280 280
274 274 274 274 274 274 274 274 274 275 275 275 275 275 275 275 275 275 276 277 278 279 281 283 283 283 283 283 283 284 284 284 285 285 284 284 284 284 284 284 285 285 285 285 285 285 284 284 284 284 283 283 282 283 283 284 285 285 285 285 285 284 284 284 283 282 282 281 280 280 280 280 280 280
274 274 274 274 274 275 275 274 274 274 275 275 275 275 275 276 276 276 276 277 278 279 281 282 282 283 283 283 283 284 284 284 285 285 284 284 284 283 284 284 284 284 284 285 285 285 284 283 283 283 283 282 281 281 282 282 283 283 283 283 284 283 283 282 282 281 281 280 280 280 280 280 280 281
273 273 273 274 274 275 275 274 274 274 275 275 276 276 276 276 276 276 276 277 278 279 281 281 281 282 282 283 283 284 284 284 285 285 284 284 284 284 284 284 284 284 284 284 284 284 284 283 282 282 282 282 281 281 281 281 281 282 281 282 282 282 282 282 281 281 280 280 279 279 280 280 281 281
272 272 272 273 275 275 275 275 274 275 276 276 276 276 276 276 276 276 276 277 277 278 280 281 281 281 281 282 283 283 283 284 284 285 285 284 284 284 284 283 283 283 283 283 283 283 282 282 282 282 282 282 282 282 282 281 282 282 281 281 281 281 282 282 281 281 281 280 280 280 280 280 280 281
272 272 273 274 274 275 275 276 276 276 277 278 277 277 276 276 276 276 276 277 277 278 280 281 281 281 281 282 283 283 283 284 284 284 285 285 284 284 284 283 283 283 282 282 282 282 282 282 282 281 281 281 282 282 282 281 281 281 280 280 280 280 281 282 281 281 281 281 281 281 280 280 279 279
272 273 274 274 274 275 276 276 276 277 277 278 278 278 277 276 276 276 277 277 278 278 280 281 281 281 281 282 283 283 283 284 284 284 284 284 284 284 284 283 282 282 281 281 281 282 282 282 281 281 281 281 281 281 280 280 280 279 279 279 279 279 279 280 281 281 281 281 281 280 280 279 278 278
271 273 274 274 275 275 276 276 276 277 277 278 278 278 278 278 278 278 278 278 279 279 280 281 281 281 281 281 281 281 282 282 283 283 283 283 283 283 282 281 281 281 281 281 282 282 281 281 280 280 280 280 280 280 280 279 279 279 278 278 278 278 278 279 279 279 279 280 280 279 279 278 277 277
271 272 273 274 274 275 276 277 277 277 277 278 278 278 278 279 279 279 279 279 280 280 281 281 281 281 281 281 281 281 281 281 281 282 282 283 283 283 282 281 281 281 281 281 280 280 280 279 279 279 279 278 279 279 279 279 279 279 278 278 277 277 277 277 277 277 277 277 278 278 278 278 277 277
271 271 272 273 273 274 275 276 277 277 278 278 278 278 278 278 279 279 279 280 280 281 281 281 281 282 281 281 281 282 282 282 282 282 282 282 282 282 281 281 280 280 279 279 279 278 278 278 278 278 277 277 277 278 278 278 278 278 279 278 277 277 276 276 276 276 276 276 276 276 276 277 277 277
270 271 271 271 272 273 274 275 276 277 277 278 278 279 279 279 279 279 279 280 280 281 281 281 281 282 282 282 282 282 282 282 282 282 282 282 281 281 280 279 279 278 278 278 277 277 276 276 276 276 276 276 276 276 277 278 278 278 278 277 277 276 276 276 276 276 275 275 275 276 276 276 276 276
Wind_Speed
27 29 31 32 34 34 34 34 34 34 34 34 34 35 36 36 39 40 39 43 46 45 44 44 43 41 39 39 39 38 38 37 36 38 38 37 36 36 36 36 36 36 35 34 33 33 33 31 30 29 28 27 26 25 25 24 23 23 22 21 21 20 19 20 20 20 21 22 21 21 21 20 20 19
24 26 27 30 32 34 35 35 34 34 34 35 35 35 35 35 38 40 39 44 48 44 44 45 43 41 40 39 39 40 39 38 37 39 40 38 37 37 37 38 37 36 36 35 34 33 34 33 31 30 30 29 28 27 27 26 26 25 23 22 22 21 21 21 21 22 23 23 22 22 22 22 21 20
25 26 27 27 28 30 32 35 36 36 35 36 36 36 36 35 37 39 39 45 51 46 44 46 44 42 41 40 40 41 40 38 38 39 40 39 39 38 39 39 38 37 37 36 35 34 35 34 33 32 32 31 30 29 28 28 27 26 24 24 23 23 23 22 23 24 24 24 23 23 23 22 22 22
27 28 29 29 28 27 29 30 32 35 36 37 37 37 37 37 38 38 37 45 52 49 45 46 45 43 42 42 43 43 41 39 38 38 38 39 40 41 41 40 39 38 37 37 36 35 35 36 35 34 34 33 32 31 30 30 29 27 27 26 25 24 25 25 25 25 25 24 24 23 23 23 23 23
30 30 31 31 30 29 30 30 29 30 31 34 37 38 39 39 39 38 38 43 51 51 48 47 47 44 43 45 46 46 44 42 40 39 38 38 40 42 41 40 40 39 38 38 37 36 36 37 37 36 36 35 34 33 32 31 30 29 28 27 27 26 26 26 26 27 26 25 25 24 24 24 23 24
33 34 34 34 33 32 32 33 31 30 29 30 32 35 37 40 41 39 38 41 47 51 50 47 47 46 45 46 47 47 48 46 43 42 41 40 40 40 41 41 40 39 39 39 39 38 37 38 38 38 38 37 36 35 34 33 32 31 30 29 28 28 28 28 28 28 27 27 26 25 24 24 24 24
36 36 37 37 36 35 35 36 34 33 32 31 31 32 32 37 40 40 40 40 44 49 49 47 48 47 47 48 48 47 48 47 46 45 44 42 41 41 41 41 40 39 40 40 40 39 38 39 39 39 40 39 38 37 36 35 34 32 31 30 30 29 29 29 29 28 28 27 26 25 25 26 26 25
41 40 40 40 39 38 39 39 38 36 35 34 33 34 32 32 35 37 40 42 43 45 47 48 47 46 47 48 48 46 46 47 48 48 46 44 43 43 43 42 41 39 40 41 41 41 40 40 40 41 41 41 41 39 38 37 35 34 33 32 31 30 30 30 29 29 29 28 26 26 26 27 27 26
44 44 45 44 42 41 41 42 40 38 37 36 35 36 36 34 33 33 35 40 43 44 47 49 47 45 46 47 48 47 47 46 47 48 48 47 46 46 46 45 43 40 40 41 42 42 42 42 42 42 42 43 43 42 40 39 38 37 36 34 33 32 31 31 30 30 30 28 28 28 28 27 27 27
44 45 46 47 46 45 44 44 43 41 39 38 37 37 38 37 35 34 33 35 38 43 47 49 48 46 45 46 47 48 48 48 48 47 48 49 49 49 49 48 45 42 41 42 43 44 44 44 44 44 44 45 45 43 42 41 40 39 38 36 35 34 33 32 32 31 31 29 29 30 29 29 28 28
45 45 46 47 48 48 47 47 46 45 43 41 40 39 38 38 38 38 36 34 35 39 44 48 49 48 46 45 45 47 47 49 50 50 49 50 51 50 50 48 46 44 43 44 45 46 46 46 46 46 47 46 46 46 45 44 43 41 40 39 37 35 35 34 33 33 32 30 31 31 30 30 30 29
48 47 47 47 48 48 49 49 48 48 46 45 44 42 39 37 37 39 39 38 36 37 40 44 47 48 47 45 45 44 45 48 53 54 53 52 51 50 48 48 46 45 45 45 47 49 49 49 49 49 49 48 48 48 48 47 46 44 43 41 39 38 37 36 35 34 32 32 32 32 31 31 30 29
50 50 50 49 49 49 49 49 49 49 49 48 47 46 43 39 38 38 39 40 39 39 40 43 44 45 47 48 46 45 47 50 54 55 54 55 54 51 49 49 48 47 48 48 50 52 52 51 51 51 52 51 51 51 51 50 49 48 46 44 42 41 39 37 36 35 34 33 33 33 32 32 31 30
51 50 50 50 50 50 50 50 50 50 51 50 49 49 47 44 41 39 40 41 41 41 42 43 44 44 47 49 49 49 50 49 49 51 54 56 56 53 52 53 52 51 51 52 53 54 53 53 53 53 54 54 54 54 54 54 53 51 48 46 45 43 40 38 38 37 35 35 34 34 34 33 31 30
53 52 52 51 50 50 51 51 51 51 51 51 51 51 50 48 46 43 42 43 43 43 43 44 45 45 47 49 48 49 49 47 47 49 52 54 55 55 56 57 57 56 54 54 55 55 54 55 55 55 56 55 56 57 57 56 55 53 51 49 47 45 42 41 40 39 37 36 35 35 35 33 32 30
54 54 54 53 52 52 51 51 52 52 53 53 53 52 52 51 49 47 46 45 45 45 45 46 46 47 48 49 48 46 47 47 46 47 49 52 55 56 57 58 59 58 55 53 54 56 55 56 57 58 58 57 57 57 58 58 57 56 54 51 49 47 45 44 42 40 39 37 37 36 35 34 32 31
55 55 54 54 55 54 52 50 50 50 52 52 53 53 53 52 52 51 50 48 47 47 48 48 49 49 48 49 48 46 45 45 45 46 48 51 54 55 57 59 58 56 53 51 51 54 55 56 58 60 59 58 58 57 58 59 59 58 56 54 52 50 48 46 44 43 41 39 38 37 37 35 34 32
55 55 54 55 56 56 54 51 50 49 48 49 50 51 52 54 55 54 53 51 50 49 50 51 52 51 49 49 48 46 45 44 46 48 49 50 52 54 56 56 54 54 55 53 52 54 56 56 58 60 60 59 59 57 57 58 59 60 59 57 55 52 51 49 46 45 43 41 39 39 38 37 35 33
56 56 56 55 55 56 55 53 50 48 46 46 46 48 50 53 55 56 56 55 53 51 51 52 53 53 51 49 47 46 47 47 48 48 48 47 47 47 49 51 52 54 56 55 53 55 57 56 57 59 59 59 59 58 57 58 59 61 61 59 57 55 54 51 48 47 45 43 42 41 40 38 36 34
53 53 52 51 51 52 54 53 50 45 43 44 46 48 49 51 52 55 57 57 57 55 53 52 52 53 52 50 47 46 46 48 48 47 45 43 42 43 46 49 51 53 55 55 55 56 57 56 57 58 57 57 58 58 59 59 59 61 63 61 59 58 56 53 50 49 48 46 44 42 41 40 38 35
46 46 45 44 45 48 51 52 49 43 41 45 48 50 51 51 52 54 56 57 57 57 56 55 53 53 52 51 48 46 45 47 48 46 45 44 43 44 47 50 51 51 53 54 55 55 56 56 56 56 55 55 56 56 58 60 61 61 62 62 61 60 57 54 53 52 50 48 46 44 42 41 38 36
40 40 38 36 36 40 42 43 41 38 38 42 46 48 49 51 52 54 55 56 57 56 55 55 54 54 53 51 50 48 45 45 47 47 48 48 46 46 49 52 51 48 50 54 54 53 55 57 56 54 53 52 54 56 57 59 61 62 62 62 62 61 58 55 54 53 51 49 48 46 44 42 39 38
39 40 40 38 36 37 39 39 38 37 36 39 42 45 46 50 54 55 53 52 53 54 53 54 54 55 54 52 51 49 47 46 47 49 51 50 48 49 52 52 47 43 47 54 54 51 53 55 55 54 51 49 52 54 56 57 59 60 61 62 63 62 58 55 54 53 52 51 50 48 46 43 41 40
43 41 40 39 35 34 36 37 37 36 36 37 40 43 45 50 55 56 53 50 49 50 52 53 53 54 55 53 51 50 49 48 47 49 50 51 50 51 52 51 48 47 50 52 49 49 51 52 52 54 53 50 49 50 53 55 56 57 59 61 63 62 58 55 55 54 53 52 50 48 46 44 43 43
44 42 40 38 36 34 36 37 37 37 37 37 39 42 45 48 49 49 51 51 49 49 51 52 53 53 54 53 52 51 51 49 48 47 49 51 52 53 53 52 50 52 53 51 48 46 47 48 51 52 51 50 49 48 48 49 52 55 57 59 61 60 59 58 57 56 54 52 50 48 47 45 44 43
44 44 44 43 42 39 38 39 39 39 39 39 40 42 43 44 44 44 46 49 50 51 51 52 52 52 53 53 53 52 51 50 48 46 46 48 50 53 55 54 52 53 54 52 51 49 46 46 49 51 51 51 50 48 46 45 47 50 52 55 57 57 57 58 58 58 57 55 52 50 48 45 45 44
44 45 45 44 43 40 39 39 39 40 40 40 42 43 43 44 44 44 44 46 49 52 54 53 53 54 53 53 53 53 51 50 48 46 44 44 46 49 52 54 54 55 53 50 50 50 49 48 48 49 50 50 49 48 48 47 47 47 49 52 54 54 54 56 57 58 58 56 54 51 49 46 45 44
41 42 42 41 40 40 40 40 40 41 42 42 42 42 42 43 44 45 46 46 47 51 55 55 54 54 54 53 53 53 51 49 46 45 43 42 43 44 46 48 52 54 53 50 49 49 48 48 49 49 48 47 48 49 50 49 48 47 47 49 52 54 54 55 56 56 57 56 55 53 51 49 48 46
40 40 39 38 38 38 38 39 40 40 40 39 38 39 40 41 43 45 47 46 45 48 54 57 55 54 55 54 53 52 50 47 45 44 43 42 41 40 41 43 46 49 52 52 52 50 48 46 47 48 47 46 47 49 49 49 48 47 46 47 50 52 54 55 55 55 56 56 56 54 53 51 49 47
42 42 40 38 38 38 38 39 40 41 40 38 38 39 39 40 42 44 46 47 46 46 51 57 57 54 53 53 51 49 48 46 45 44 42 41 40 38 38 39 42 45 49 52 54 54 52 49 47 46 46 46 47 47 47 47 46 45 45 46 47 48 51 55 57 57 56 56 55 54 53 50 47 46
45 45 43 41 40 40 40 41 42 42 42 41 40 40 39 40 41 42 44 46 47 47 49 55 57 52 49 49 49 47 47 46 45 44 42 41 40 38 37 38 41 43 46 49 52 54 54 53 49 47 46 46 47 47 47 47 47 46 45 45 45 46 48 52 57 58 57 56 55 54 51 48 47 46
46 45 44 43 42 41 42 44 44 44 43 43 43 42 41 41 41 41 42 43 45 45 46 52 54 49 44 44 46 46 45 45 45 44 42 41 40 39 37 38 40 42 44 46 49 51 53 54 52 49 48 47 47 48 47 47 47 47 46 44 43 45 47 49 53 58 59 57 55 52 50 49 49 48
43 42 42 42 42 42 43 44 45 46 46 47 47 45 43 41 40 40 41 42 42 41 42 47 52 49 43 41 41 42 43 43 44 44 42 41 40 39 38 38 40 41 42 44 46 48 51 52 51 49 48 47 47 47 48 48 48 48 48 46 45 46 48 49 51 55 58 58 55 52 51 50 49 47
39 40 40 41 41 42 44 45 46 48 49 48 47 45 43 41 40 39 40 40 38 38 39 44 48 45 42 40 38 39 40 41 42 42 42 41 40 39 39 39 40 41 42 42 44 46 48 49 49 47 46 46 46 47 48 49 50 50 49 49 49 49 50 50 50 52 55 57 56 53 51 50 49 47
40 40 41 43 43 43 44 44 46 47 48 47 46 45 43 41 40 40 39 37 35 34 36 42 46 45 43 41 39 39 40 41 41 41 41 40 40 40 40 40 40 41 42 42 43 44 45 47 47 46 45 44 45 46 47 48 50 50 50 50 50 49 49 50 50 50 51 54 54 53 51 50 48 46
41 41 42 44 44 44 44 45 46 48 48 47 46 44 43 42 40 39 38 36 33 32 31 35 41 44 44 43 40 40 41 41 41 41 41 41 40 40 40 40 40 41 42 43 44 44 44 45 46 46 45 43 41 43 45 47 49 50 49 49 49 48 47 47 48 48 48 51 53 52 51 49 48 45
38 38 38 39 40 42 44 46 47 47 47 47 46 44 43 41 38 37 36 34 32 31 29 28 30 35 38 39 37 37 38 40 41 41 42 42 41 40 40 40 41 42 43 44 43 44 44 44 45 46 45 43 41 42 43 44 46 48 48 47 47 47 46 45 45 46 46 48 51 51 49 48 46 45
30 32 33 35 38 41 43 44 45 45 45 45 44 43 42 39 36 35 35 33 31 29 27 26 26 27 32 35 35 36 37 38 40 41 42 42 41 41 41 41 41 43 44 44 43 44 44 44 45 46 46 45 45 44 42 42 44 46 45 44 44 44 44 44 45 46 46 47 49 49 47 45 43 42
27 29 31 34 37 39 41 41 41 42 42 41 39 38 37 36 34 32 33 33 31 28 26 25 24 24 28 32 34 36 37 38 39 41 42 43 43 42 42 41 42 43 43 43 43 43 43 44 45 46 47 47 47 46 44 44 44 45 44 43 42 42 43 43 45 47 46 46 48 47 44 41 39 38
26 28 31 34 36 37 37 38 40 40 38 35 32 29 28 29 28 28 29 31 30 28 27 26 25 24 26 29 32 35 37 37 38 39 40 41 41 41 41 41 42 43 44 44 44 44 44 45 45 45 46 46 45 43 41 40 40 40 41 41 40 40 41 43 47 49 47 46 46 45 42 40 37 35
27 28 30 32 34 35 35 37 38 37 34 31 30 27 23 20 20 23 25 27 27 28 28 26 24 24 25 27 30 31 32 34 37 38 38 38 39 40 41 41 42 43 43 43 44 44 44 44 44 44 44 44 44 40 35 33 35 36 38 39 39 38 38 40 43 46 45 44 43 42 39 37 35 33
26 27 28 30 32 33 34 35 36 35 32 29 28 27 24 20 17 19 23 25 26 27 28 26 24 24 25 26 27 28 28 31 33 35 35 37 39 41 41 41 42 43 43 43 43 43 42 41 42 43 43 43 43 40 35 34 35 36 37 39 39 38 37 36 36 38 39 39 39 38 36 33 32 31
25 26 27 28 29 31 32 32 32 33 32 29 26 25 25 24 22 22 25 26 27 28 28 27 27 27 26 25 26 27 28 30 31 33 36 39 41 42 42 41 42 43 43 42 41 40 39 39 40 41 41 41 41 38 35 34 35 36 37 38 37 35 34 32 30 30 30 30 31 31 31 31 30 29
26 26 26 27 28 28 28 28 28 28 28 27 25 23 22 23 25 26 27 27 26 25 26 27 28 28 27 26 26 28 29 30 33 36 39 41 42 42 41 41 41 40 39 38 37 36 36 37 38 38 39 39 38 36 34 34 34 34 35 36 35 34 33 31 29 28 28 28 28 29 29 29 28 27
26 26 27 27 27 27 27 26 25 24 23 22 21 20 20 20 20 22 23 24 24 24 25 26 26 27 26 26 26 28 29 31 34 37 38 38 39 38 38 38 38 37 37 37 36 34 34 34 34 34 35 35 35 34 33 33 33 33 33 33 34 34 34 33 33 32 30 29 29 29 28 28 27 26
Wind_Direction
289 280 273 268 265 263 263 263 263 263 263 264 265 267 267 268 268 269 271 271 270 270 269 267 265 264 262 261 259 257 255 253 251 251 251 248 246 245 246 246 246 247 246 245 244 244 243 240 237 234 231 229 228 229 233 237 239 241 242 243 244 245 245 244 245 245 245 245 244 242 240 236 233 231
311 303 294 284 276 271 267 265 264 263 263 262 262 263 264 265 266 267 269 271 271 270 270 269 268 267 265 262 261 259 258 257 255 254 254 252 249 247 247 246 246 245 245 244 242 242 242 239 235 233 231 228 228 230 233 237 239 242 244 244 244 245 245 245 246 246 246 246 245 244 241 238 235 231
316 313 310 304 296 287 279 272 268 266 264 263 262 262 262 262 263 266 268 270 271 270 270 270 269 268 267 265 263 261 260 259 257 257 256 255 252 248 247 247 246 244 244 242 241 240 240 238 235 232 230 229 229 231 234 237 240 242 243 243 243 243 243 244 244 244 245 245 245 244 242 240 237 233
314 311 309 309 309 306 298 289 281 274 269 267 264 262 262 261 261 264 266 267 268 269 270 271 270 269 267 266 264 262 261 259 258 258 257 256 254 249 246 247 246 244 243 241 239 238 237 237 235 232 230 229 229 232 235 238 240 241 242 243 243 242 242 242 242 243 244 244 243 242 241 239 238 237
313 310 307 306 307 308 306 302 298 290 282 276 270 266 264 262 260 262 264 266 268 268 268 269 269 268 266 264 263 263 262 260 258 257 256 256 254 251 248 247 246 244 242 241 239 236 235 235 234 232 230 230 230 232 235 237 240 241 242 243 243 243 243 243 243 244 245 244 242 240 238 238 238 238
311 309 307 305 305 305 303 301 301 300 296 290 282 275 270 266 263 262 263 266 268 269 267 267 267 267 266 264 262 262 262 262 260 259 256 255 254 253 250 247 246 245 244 242 239 236 234 232 232 231 230 230 230 232 235 237 239 241 243 244 243 244 244 245 245 246 246 244 242 239 237 237 238 239
307 306 305 304 304 304 301 299 299 299 298 297 294 288 281 274 269 265 263 264 267 269 269 268 266 265 265 264 263 263 263 263 263 261 258 256 254 253 251 247 245 245 244 242 240 238 235 232 231 231 230 230 231 232 234 237 239 241 243 244 243 243 244 246 246 247 247 246 243 240 238 238 239 239
304 302 301 300 301 301 298 297 296 296 296 296 295 294 291 285 279 273 267 265 265 268 270 269 267 266 264 263 263 263 263 262 261 260 258 256 253 251 250 247 244 244 244 243 241 240 237 233 231 230 230 230 231 232 233 236 239 240 242 243 243 243 244 246 246 247 247 246 243 241 239 239 240 240
299 298 297 296 296 295 294 294 294 293 293 294 293 292 291 291 288 282 274 269 266 267 268 268 268 268 265 262 261 261 260 260 260 258 256 254 251 249 248 245 243 243 244 244 243 241 239 235 232 230 230 230 231 231 232 234 237 239 241 242 243 243 244 245 246 246 246 244 242 242 241 240 241 241
292 291 291 291 291 289 289 289 290 290 290 290 289 289 289 290 290 288 282 275 270 267 266 267 268 268 266 264 261 259 258 259 259 259 257 253 249 246 245 244 242 242 243 245 245 243 241 238 234 231 230 231 231 231 232 233 235 238 240 241 242 243 244 245 245 245 245 244 242 241 241 241 241 240
288 286 285 285 285 285 285 285 286 286 287 286 285 284 285 286 287 287 286 282 275 270 268 267 266 266 266 266 263 259 258 258 258 258 257 254 249 245 243 243 242 242 244 245 245 244 242 240 236 232 231 231 231 231 232 233 234 236 238 240 241 242 244 245 244 245 245 243 242 241 241 241 240 240
288 286 283 281 280 280 281 281 282 282 283 283 282 281 280 280 280 282 284 283 280 275 271 269 267 266 266 265 264 261 256 253 252 252 253 253 252 249 245 244 243 243 245 246 246 244 242 239 238 235 232 231 231 231 232 233 233 234 236 238 240 241 242 244 244 244 244 242 242 242 241 240 241 240
288 286 284 282 280 278 276 276 277 277 278 279 280 279 278 277 275 274 276 278 279 277 273 271 270 267 265 263 262 260 255 252 251 251 251 252 253 251 249 247 244 244 245 246 246 245 243 240 238 237 235 232 230 231 232 233 233 233 234 236 238 239 241 242 243 243 243 242 242 242 241 241 240 240
289 287 285 283 281 279 276 274 272 272 273 274 276 276 276 276 274 272 271 271 273 274 273 272 270 266 263 262 260 258 258 256 255 253 252 252 252 251 249 248 246 244 244 244 245 245 244 242 240 239 238 235 231 231 231 233 234 234 233 234 236 238 239 241 242 243 242 241 241 241 240 240 240 240
289 287 285 284 282 280 278 277 274 272 271 270 271 272 272 273 272 271 269 268 268 269 270 271 270 265 263 265 262 258 258 258 255 254 254 252 252 249 248 248 247 244 242 242 244 245 244 243 242 241 241 238 234 232 232 233 235 235 234 234 236 238 239 240 241 242 241 240 240 240 240 240 239 240
287 286 285 284 282 280 278 277 276 275 273 271 269 269 270 270 269 268 266 265 266 266 267 267 267 265 265 266 263 258 258 256 254 254 253 252 251 249 248 249 249 248 244 242 243 246 246 245 244 243 242 241 238 235 234 233 235 236 236 235 236 237 238 239 240 241 240 240 240 240 240 239 238 238
284 284 283 283 282 280 279 277 275 275 275 274 272 270 270 269 268 266 264 262 262 263 264 264 264 264 265 265 264 261 258 257 255 253 251 251 250 249 248 250 250 249 248 245 244 247 247 246 246 246 244 243 240 238 236 234 235 236 236 236 235 236 238 239 239 240 240 240 239 239 239 238 237 236
283 282 282 282 281 279 278 276 274 273 274 275 275 274 272 269 267 266 265 263 260 259 260 260 262 264 263 263 266 265 259 256 255 254 252 251 250 249 251 254 252 251 252 249 246 247 247 246 247 247 246 245 242 241 240 237 235 235 236 236 235 235 237 238 238 240 240 240 239 239 239 239 237 236
282 282 282 282 281 280 279 276 274 273 273 273 273 274 273 271 269 267 265 263 261 259 258 258 260 263 264 264 265 264 260 257 256 256 256 256 255 255 256 256 252 250 252 249 245 245 247 246 247 248 248 247 245 243 242 240 237 235 235 236 235 235 236 237 238 239 240 240 240 239 240 240 239 238
283 282 281 281 280 279 278 277 275 274 273 271 269 269 269 270 270 269 266 263 262 260 258 258 258 260 262 264 264 263 260 258 256 256 256 256 254 252 251 251 249 248 248 246 243 244 246 246 246 247 249 249 247 245 243 241 238 236 234 234 235 235 235 236 237 238 239 240 240 240 240 241 241 240
288 286 285 284 283 282 281 280 279 278 275 272 270 268 267 267 268 268 266 264 264 262 260 258 257 257 258 260 262 261 258 256 255 252 250 249 247 243 242 244 245 244 245 246 244 243 243 245 245 246 248 249 249 248 245 242 239 236 234 234 235 235 235 235 235 237 238 239 239 240 240 240 240 239
291 290 289 288 287 286 286 286 286 283 279 275 272 269 268 267 265 265 265 264 264 264 263 260 258 256 255 255 257 258 256 253 251 249 247 246 244 240 239 241 243 242 243 246 245 241 241 244 243 243 244 246 247 247 246 244 240 236 233 232 233 235 234 233 234 235 236 237 238 238 239 239 238 238
293 293 293 292 290 287 287 288 287 284 281 277 274 271 269 267 264 261 262 264 265 264 263 262 259 257 255 254 254 255 254 251 248 246 246 246 242 239 240 241 240 239 241 244 242 239 240 242 240 239 238 239 241 243 244 243 242 238 233 231 231 233 232 231 233 234 235 236 236 236 236 237 237 237
297 297 297 296 294 291 290 289 287 285 282 277 275 273 271 268 265 262 261 262 264 264 262 261 260 259 257 255 254 254 254 252 248 244 244 243 241 240 241 240 238 238 242 243 241 239 240 240 239 240 239 237 240 243 243 243 242 239 234 230 230 231 229 228 230 232 233 234 234 234 235 235 236 237
297 296 295 294 293 292 290 289 287 285 283 280 277 275 272 271 271 269 265 261 261 263 262 259 258 258 258 256 255 254 254 253 250 246 243 242 241 240 240 239 238 239 242 244 242 241 241 239 238 239 239 237 238 241 242 242 242 239 235 231 230 229 227 226 228 230 231 232 232 233 233 233 235 236
296 296 296 296 296 293 290 289 286 283 282 280 277 274 273 273 272 271 268 264 260 259 260 258 255 254 255 254 253 253 252 252 251 249 245 243 243 242 241 240 238 240 242 242 242 242 241 240 240 239 238 237 237 237 238 239 239 237 232 228 227 227 225 225 227 228 230 231 231 231 231 232 234 236
298 299 300 301 303 301 296 292 289 285 283 282 279 276 275 274 272 271 271 268 262 257 256 256 253 250 250 250 250 251 251 250 250 250 248 246 245 244 244 242 241 242 243 242 243 242 241 241 241 240 240 238 235 234 235 236 237 236 232 228 225 223 222 223 225 227 229 229 230 230 230 230 231 233
303 305 307 309 310 307 302 295 289 286 284 283 282 280 279 275 272 270 271 271 266 258 254 254 252 247 245 246 247 248 249 248 249 251 251 249 248 248 248 246 244 242 241 240 241 243 242 242 241 241 241 239 234 234 236 236 235 235 234 228 223 221 221 222 223 225 227 228 228 229 229 228 227 228
304 307 309 309 305 302 299 296 292 290 288 284 282 282 281 277 272 269 269 271 270 261 253 252 252 247 243 243 245 247 248 249 249 251 252 251 250 250 250 250 248 245 241 239 239 240 241 242 242 241 240 238 236 236 237 236 235 235 234 229 226 225 224 223 223 224 225 226 228 229 230 229 229 230
303 304 305 304 302 301 300 299 297 295 291 287 284 281 279 278 275 270 267 270 273 267 256 251 252 249 243 241 244 245 246 247 248 248 249 250 250 248 248 249 248 245 242 240 238 238 239 240 241 240 238 237 236 235 235 235 237 237 235 232 230 227 225 224 225 224 223 225 226 228 229 229 230 231
306 306 305 304 303 303 302 301 298 294 290 288 287 285 282 279 277 273 270 270 272 272 262 252 251 250 245 240 241 242 242 243 245 246 246 246 247 246 245 246 247 247 245 243 240 238 237 238 239 238 236 235 235 235 234 235 237 237 235 233 231 228 227 226 224 223 223 224 225 226 226 225 225 227
307 306 306 305 304 303 303 301 298 294 292 290 289 288 286 283 279 276 274 273 273 273 265 252 249 250 245 238 237 238 239 242 244 245 244 243 245 246 244 243 245 246 245 244 242 240 238 237 237 238 238 237 236 236 234 233 234 236 236 236 235 234 233 230 226 224 224 223 223 224 224 222 222 223
304 304 304 304 304 303 300 298 295 293 292 290 289 287 286 284 279 276 275 274 275 276 266 252 247 248 244 239 237 236 237 241 243 244 243 242 243 243 243 242 244 245 246 246 244 242 239 237 236 236 237 236 236 236 235 233 233 234 236 238 238 235 233 232 229 226 224 222 220 220 220 219 220 221
300 301 301 301 300 298 296 295 294 294 293 292 290 288 285 283 280 277 275 274 278 281 269 251 245 244 241 238 238 237 237 239 241 242 241 241 240 239 240 241 241 243 245 246 245 243 240 237 235 233 232 232 231 231 232 233 235 237 238 239 239 236 233 232 229 227 225 223 220 218 218 217 218 219
300 300 300 300 299 298 297 297 297 297 296 294 291 288 285 283 281 279 277 276 281 284 268 247 240 242 242 241 240 238 237 237 238 239 239 238 238 239 241 241 240 240 242 243 243 242 239 236 233 228 226 225 225 226 228 231 234 237 237 236 234 232 231 229 226 225 224 222 219 217 216 215 215 216
297 296 297 298 299 301 302 302 301 300 297 295 292 288 285 283 282 279 276 276 282 286 273 249 238 238 240 241 240 237 236 236 235 236 237 237 237 239 241 242 241 239 240 241 242 241 237 234 230 226 221 218 218 221 224 227 229 232 232 230 228 226 226 225 224 223 222 220 217 216 216 215 215 215
297 298 300 302 305 307 308 306 303 301 298 296 293 288 284 282 281 277 274 275 282 286 278 261 248 241 238 239 238 237 237 236 233 233 236 236 236 238 240 241 239 237 237 238 239 239 236 232 227 223 218 213 212 216 221 223 224 225 227 228 226 223 222 221 219 218 218 217 215 214 215 215 216 217
306 309 311 314 315 315 315 312 309 306 303 299 294 288 283 282 280 276 272 273 281 284 275 264 259 253 246 244 243 241 240 238 234 234 236 237 236 237 239 239 238 236 235 234 234 235 234 230 226 221 216 213 213 215 216 216 217 219 221 224 225 223 221 219 216 215 213 212 211 212 214 216 218 220
318 319 320 322 323 323 323 323 321 317 312 306 298 291 284 281 279 275 270 269 276 282 275 264 264 264 256 250 247 244 241 238 235 233 235 236 237 239 239 239 236 234 232 230 230 230 228 227 226 223 220 218 220 220 219 218 219 218 218 219 222 223 223 220 215 213 211 209 209 210 212 214 217 219
327 326 326 328 329 330 333 336 334 330 323 316 309 300 291 284 278 274 270 267 272 279 276 267 265 267 262 254 248 244 240 239 238 237 236 236 237 239 240 238 235 232 229 227 227 227 227 228 228 226 223 221 222 223 222 221 219 216 214 214 215 219 223 221 215 211 209 209 209 210 211 212 213 214
332 329 329 331 333 336 340 342 341 339 334 326 318 311 304 293 280 271 269 269 273 278 277 268 262 264 263 255 248 245 242 239 237 236 238 240 242 243 241 236 230 228 226 225 226 228 230 231 229 226 222 220 220 219 217 214 211 209 207 207 207 209 214 218 217 215 214 213 212 212 211 211 211 213
334 332 332 334 336 339 341 341 342 342 341 336 326 316 310 304 290 277 274 274 276 277 274 266 262 265 264 255 250 250 248 243 237 235 237 241 242 240 235 229 225 225 226 227 229 231 230 227 225 223 220 219 219 217 213 210 208 206 202 202 203 204 206 210 214 215 217 217 216 214 212 210 209 211
337 336 336 338 339 339 340 340 340 341 342 342 336 325 313 303 294 286 283 282 281 280 275 268 264 265 262 254 249 247 245 244 242 241 242 242 240 236 231 227 225 227 227 227 227 226 224 222 221 220 218 216 217 216 212 208 207 205 201 200 202 202 203 205 206 208 210 212 214 215 215 213 211 212
343 342 342 342 341 341 341 341 340 340 340 339 337 332 322 310 301 295 293 291 289 286 281 272 266 265 264 261 256 252 249 247 246 244 243 241 238 234 231 226 223 222 221 220 219 218 218 218 218 216 215 214 214 212 210 206 204 203 202 200 200 200 200 199 198 199 200 202 204 207 211 213 213 213
350 348 347 345 344 343 342 341 342 342 342 340 337 334 331 327 319 312 306 300 293 287 281 275 270 269 271 269 265 259 255 251 246 242 239 236 232 228 224 220 217 215 214 215 215 213 212 212 212 212 212 211 210 210 210 209 206 204 202 199 198 198 198 198 197 198 198 200 204 207 209 212 215 216